When you browse on this site, cookies collect data to enhance your experience and personalize the content and advertising you see.
Visit our Privacy Policy to learn more. By continuing to use the site, you agree to this use of cookies and data.
  • In Spain
  • List of Countries
  • For 7 days
  • Water Temperature
  • Weather Map
  • Weather Widgets
  • user-avatar
    Login

    Hourly Weather Klagenfurt

    Today, 10 April, Friday

    Time Temperature Precipitation Wind Pressure Humidity
    00:00 +9°C° 0 mm 1 mps 694 mmHg 58%
    01:00 +9°C° 0 mm 1 mps 694 mmHg 60%
    02:00 +8°C° 0 mm 1 mps 694 mmHg 62%
    03:00 +8°C° 0 mm 1 mps 693 mmHg 64%
    04:00 +8°C° 0 mm 1 mps 693 mmHg 66%
    05:00 +9°C° 0 mm 1 mps 694 mmHg 65%
    06:00 +10°C° 0 mm 1 mps 694 mmHg 65%
    07:00 +10°C° 0 mm 0 mps 694 mmHg 65%
    08:00 +13°C° 0 mm 1 mps 695 mmHg 58%
    09:00 +15°C° 0 mm 1 mps 695 mmHg 51%
    10:00 +19°C° 0 mm 1 mps 696 mmHg 44%
    11:00 +19°C° 0 mm 1 mps 696 mmHg 43%
    12:00 +20°C° 0 mm 1 mps 695 mmHg 41%
    13:00 +21°C° 0 mm 1 mps 695 mmHg 40%
    14:00 +20°C° 0 mm 1 mps 695 mmHg 41%
    15:00 +20°C° 0 mm 1 mps 694 mmHg 41%
    16:00 +19°C° 0 mm 1 mps 694 mmHg 42%
    17:00 +16°C° 0 mm 1 mps 694 mmHg 50%
    18:00 +14°C° 0 mm 1 mps 693 mmHg 57%
    19:00 +12°C° 0 mm 1 mps 693 mmHg 65%
    20:00 +11°C° 0 mm 1 mps 693 mmHg 67%
    21:00 +11°C° 0 mm 1 mps 693 mmHg 68%
    22:00 +10°C° 0 mm 1 mps 693 mmHg 70%
    23:00 +10°C° 0 mm 1 mps 693 mmHg 72%

    Tomorrow, 11 April, Saturday

    Time Temperature Precipitation Wind Pressure Humidity
    00:00 +8°C° 0 mm 0 mps 693 mmHg 74%
    01:00 +8°C° 0 mm 0 mps 693 mmHg 76%
    02:00 +7°C° 0 mm 0 mps 693 mmHg 78%
    03:00 +7°C° 0 mm 0 mps 693 mmHg 81%
    04:00 +6°C° 0 mm 0 mps 693 mmHg 83%
    05:00 +7°C° 0 mm 0 mps 693 mmHg 80%
    06:00 +8°C° 0 mm 0 mps 693 mmHg 77%
    07:00 +9°C° 0 mm 0 mps 694 mmHg 75%
    08:00 +12°C° 0 mm 0 mps 694 mmHg 68%
    09:00 +15°C° 0 mm 1 mps 695 mmHg 61%
    10:00 +18°C° 0 mm 1 mps 695 mmHg 54%
    11:00 +19°C° 0.1 mm 1 mps 695 mmHg 52%
    12:00 +19°C° 0.1 mm 1 mps 695 mmHg 50%
    13:00 +20°C° 0.1 mm 1 mps 695 mmHg 49%
    14:00 +19°C° 0.2 mm 1 mps 695 mmHg 51%
    15:00 +19°C° 0.2 mm 1 mps 694 mmHg 53%
    16:00 +18°C° 0.2 mm 1 mps 694 mmHg 56%
    17:00 +15°C° 0.1 mm 1 mps 694 mmHg 63%
    18:00 +14°C° 0.1 mm 1 mps 693 mmHg 71%
    19:00 +12°C° 0.1 mm 1 mps 693 mmHg 78%
    20:00 +11°C° 0 mm 1 mps 693 mmHg 80%
    21:00 +11°C° 0 mm 1 mps 693 mmHg 82%
    22:00 +9°C° 0 mm 0 mps 694 mmHg 84%
    23:00 +9°C° 0 mm 0 mps 693 mmHg 86%

    Day after tomorrow, 12 April, Sunday

    Time Temperature Precipitation Wind Pressure Humidity
    00:00 +9°C° 0 mm 0 mps 693 mmHg 87%
    01:00 +8°C° 0 mm 0 mps 693 mmHg 89%
    02:00 +8°C° 0 mm 0 mps 693 mmHg 90%
    03:00 +7°C° 0 mm 0 mps 692 mmHg 90%
    04:00 +7°C° 0 mm 0 mps 692 mmHg 91%
    05:00 +8°C° 0 mm 0 mps 692 mmHg 88%
    06:00 +9°C° 0 mm 0 mps 692 mmHg 84%
    07:00 +10°C° 0 mm 0 mps 693 mmHg 81%
    08:00 +12°C° 0 mm 0 mps 693 mmHg 72%
    09:00 +14°C° 0 mm 0 mps 693 mmHg 63%
    10:00 +18°C° 0 mm 1 mps 693 mmHg 54%
    11:00 +19°C° 0.1 mm 1 mps 693 mmHg 50%
    12:00 +18°C° 0.1 mm 2 mps 692 mmHg 47%
    13:00 +19°C° 0.1 mm 2 mps 692 mmHg 44%
    14:00 +18°C° 0 mm 3 mps 691 mmHg 44%
    15:00 +18°C° 0 mm 3 mps 691 mmHg 43%
    16:00 +18°C° 0 mm 3 mps 690 mmHg 43%
    17:00 +14°C° 0 mm 3 mps 690 mmHg 50%
    18:00 +13°C° 0 mm 2 mps 689 mmHg 58%
    19:00 +11°C° 0 mm 1 mps 688 mmHg 66%
    20:00 +10°C° 0 mm 1 mps 688 mmHg 68%
    21:00 +10°C° 0 mm 1 mps 688 mmHg 70%
    22:00 +9°C° 0 mm 1 mps 688 mmHg 72%
    23:00 +8°C° 0 mm 1 mps 688 mmHg 74%

    13 April, Monday

    Time Temperature Precipitation Wind Pressure Humidity
    00:00 +8°C° 0 mm 1 mps 688 mmHg 75%
    01:00 +8°C° 0 mm 1 mps 687 mmHg 77%
    02:00 +8°C° 0 mm 1 mps 687 mmHg 78%
    03:00 +7°C° 0 mm 1 mps 687 mmHg 79%
    04:00 +7°C° 0 mm 1 mps 687 mmHg 79%
    05:00 +8°C° 0 mm 1 mps 687 mmHg 77%
    06:00 +9°C° 0 mm 1 mps 687 mmHg 75%
    07:00 +10°C° 0 mm 1 mps 687 mmHg 72%
    08:00 +11°C° 0 mm 1 mps 687 mmHg 64%
    09:00 +13°C° 0 mm 1 mps 688 mmHg 56%
    10:00 +15°C° 0 mm 2 mps 688 mmHg 48%
    11:00 +15°C° 0 mm 2 mps 688 mmHg 46%
    12:00 +16°C° 0 mm 3 mps 688 mmHg 43%
    13:00 +15°C° 0 mm 4 mps 688 mmHg 41%
    14:00 +16°C° 0 mm 3 mps 687 mmHg 41%
    15:00 +14°C° 0 mm 3 mps 687 mmHg 42%
    16:00 +14°C° 0 mm 3 mps 687 mmHg 42%
    17:00 +13°C° 0 mm 2 mps 686 mmHg 52%
    18:00 +10°C° 0 mm 2 mps 686 mmHg 61%
    19:00 +9°C° 0 mm 1 mps 685 mmHg 71%
    20:00 +9°C° 0 mm 1 mps 686 mmHg 74%
    21:00 +8°C° 0 mm 1 mps 686 mmHg 77%
    22:00 +8°C° 0 mm 1 mps 686 mmHg 80%
    23:00 +7°C° 0 mm 1 mps 686 mmHg 81%

    14 April, Tuesday

    Time Temperature Precipitation Wind Pressure Humidity
    00:00 +7°C° 0 mm 1 mps 686 mmHg 83%
    01:00 +7°C° 0 mm 1 mps 685 mmHg 84%
    02:00 +7°C° 0 mm 1 mps 685 mmHg 84%
    03:00 +7°C° 0 mm 1 mps 685 mmHg 83%
    04:00 +6°C° 0 mm 1 mps 685 mmHg 82%
    05:00 +7°C° 0 mm 1 mps 685 mmHg 78%
    06:00 +8°C° 0 mm 1 mps 686 mmHg 75%
    07:00 +8°C° 0 mm 0 mps 686 mmHg 71%
    08:00 +12°C° 0 mm 1 mps 686 mmHg 64%
    09:00 +14°C° 0 mm 1 mps 687 mmHg 57%
    10:00 +16°C° 0 mm 1 mps 688 mmHg 50%
    11:00 +15°C° 0.2 mm 1 mps 688 mmHg 53%
    12:00 +15°C° 0.2 mm 2 mps 688 mmHg 56%
    13:00 +14°C° 0.2 mm 2 mps 688 mmHg 59%
    14:00 +12°C° 0.4 mm 2 mps 688 mmHg 69%
    15:00 +10°C° 0.4 mm 2 mps 687 mmHg 78%
    16:00 +8°C° 0.4 mm 2 mps 687 mmHg 87%
    17:00 +6°C° 0.6 mm 2 mps 687 mmHg 89%
    18:00 +5°C° 0.6 mm 2 mps 687 mmHg 92%
    19:00 +4°C° 0.6 mm 2 mps 687 mmHg 95%
    20:00 +3°C° 0.4 mm 2 mps 688 mmHg 95%
    21:00 +4°C° 0.4 mm 1 mps 688 mmHg 96%
    22:00 +3°C° 0.4 mm 1 mps 689 mmHg 96%
    23:00 +3°C° 0.2 mm 1 mps 688 mmHg 96%

    15 April, Wednesday

    Time Temperature Precipitation Wind Pressure Humidity
    00:00 +2°C° 0.2 mm 1 mps 688 mmHg 96%
    01:00 +2°C° 0.2 mm 1 mps 688 mmHg 95%
    02:00 +2°C° 0 mm 1 mps 688 mmHg 94%
    03:00 +2°C° 0 mm 1 mps 688 mmHg 92%
    04:00 +2°C° 0 mm 1 mps 688 mmHg 91%
    05:00 +1°C° 0 mm 0 mps 688 mmHg 89%
    06:00 +2°C° 0 mm 0 mps 688 mmHg 87%
    07:00 +2°C° 0 mm 0 mps 688 mmHg 85%
    08:00 +4°C° 0 mm 0 mps 688 mmHg 81%
    09:00 +5°C° 0 mm 0 mps 688 mmHg 76%
    10:00 +7°C° 0 mm 0 mps 689 mmHg 72%
    11:00 +9°C° 0 mm 0 mps 689 mmHg 69%
    12:00 +11°C° 0 mm 1 mps 689 mmHg 66%
    13:00 +12°C° 0 mm 1 mps 689 mmHg 64%
    14:00 +12°C° 0 mm 1 mps 689 mmHg 65%
    15:00 +12°C° 0 mm 1 mps 689 mmHg 67%
    16:00 +11°C° 0 mm 1 mps 688 mmHg 69%
    17:00 +10°C° 0 mm 1 mps 688 mmHg 75%
    18:00 +9°C° 0 mm 1 mps 688 mmHg 81%
    19:00 +7°C° 0 mm 0 mps 688 mmHg 86%
    20:00 +6°C° 0 mm 0 mps 688 mmHg 87%
    21:00 +7°C° 0 mm 1 mps 688 mmHg 89%
    22:00 +7°C° 0 mm 1 mps 688 mmHg 90%
    23:00 +7°C° 0 mm 1 mps 688 mmHg 91%
    Show more